ASTRO-H (HITOMI)

Last updated on Sun Jun 21 2026 00:02:16 GMT+0000 (Coordinated Universal Time)

1 41337U 16012A 26171.07394254 .00001943 00000+0 10927-3 0 9997 2 41337 30.9996 55.5433 0009776 282.4746 77.4798 15.10521114567723
UTC large
Height (km)
Speed (km/s)
/
Latitude / Longitude
Inclination (degrees)
Orbital Period (minutes)
Azimuth
Elevation
Range (km)
Doppler Factor

Next 0 passes for location: London (51.5072 / 0.1276)

No passes found over London.
ASTRO-H (HITOMI)